Content
SEND FEEDBACK

Daily
Averages
Monthly
Summary
United States of America

ASHEVILLE, NORTH CAROLINA


Home > North America > United States > North Carolina
Elevation: 2240 feet     Latitude: 35 36N     Longitude: 082 32W

WEATHER
 
SELECT A DAY
Number of Records: 223,075;   Date Range: 1/1/95 - 4/23/14
 
SHARE

PRINT THIS DATA

[ ← Previous Day ]
WEATHER ALMANAC - APRIL 27, 2013
[ Next Day → ]
[ °C ]   °F
Weather ElementAverageHighLow
Temperature52.1 °F55 °F (2:54 am)50 °F (7:39 pm)
Dewpoint49.1 °F51.8 °F (2:41 pm)43 °F (1:54 am)
Humidity90.1 %100 % (2:41 pm)64 % (2:54 am)
Barometer30.31 in30.37 in (2:44 pm)30.24 in (11:54 pm)
Wind Speed2.7 mph8.1 mph (6:41 pm)
Weather ElementAverage
Visibility6.5 mi
Wind DirectionESE (102.8 °)

Weather ElementTotal
Precipitation1.82 in
Heating Degree Days12.5 (Base 65)
Growing Degree Days2.5 (Base 50)
Averaged from 40 records on April 27, 2013
WEATHER CONDITIONS BREAKOUT
WIND DIRECTION BREAKOUT
WEATHER BY HOUR - APRIL 27, 2013
[ °C ]   °F
Local TimeTemperatureDewpointHumidityBarometerVisibilityWind DirectionWind SpeedGust SpeedPrecipitationEventsConditions
1:54 AM54.0 °F43.0 °F66 %30.34 in10.0 miCalmOvercast
2:54 AM55.0 °F43.0 °F64 %30.32 in10.0 miNNW (340°)6.9 mphOvercast
3:54 AM53.1 °F45.0 °F74 %30.31 in10.0 miCalmOvercast
4:54 AM53.1 °F45.0 °F74 %30.31 in10.0 miCalm0.00 inOvercast
5:54 AM52.0 °F46.9 °F83 %30.31 in10.0 miCalm0.00 inRainLight Rain
6:54 AM51.1 °F46.9 °F86 %30.32 in10.0 miCalm0.01 inRainLight Rain
7:54 AM52.0 °F48.0 °F86 %30.32 in10.0 miCalm0.00 inOvercast
8:54 AM52.0 °F48.0 °F86 %30.34 in10.0 miWNW (290°)3.5 mphOvercast
9:54 AM54.0 °F46.0 °F75 %30.32 in10.0 miNW (310°)4.6 mphOvercast
10:54 AM54.0 °F46.9 °F77 %30.32 in10.0 miSSW (200°)4.6 mphOvercast
11:54 AM54.0 °F48.0 °F80 %30.32 in10.0 miSouth (170°)4.6 mphOvercast
12:54 PM54.0 °F48.9 °F83 %30.34 in7.0 miSSW (200°)4.6 mph0.02 inRainLight Rain
1:54 PM52.0 °F50.0 °F93 %30.35 in5.0 miSSE (150°)3.5 mph0.08 inRainRain
2:41 PM51.8 °F51.8 °F100 %30.36 in2.5 miCalm0.13 inRainRain
2:44 PM51.8 °F50.0 °F94 %30.37 in2.5 miCalm0.13 inRainRain
2:52 PM51.8 °F51.8 °F100 %30.37 in2.0 miCalm0.16 inRainHeavy Rain
2:54 PM52.0 °F51.1 °F97 %30.34 in2.0 miCalm0.17 inRainHeavy Rain
3:06 PM51.8 °F51.8 °F100 %30.35 in4.0 miCalm0.03 inRainRain
3:15 PM51.8 °F51.8 °F100 %30.35 in2.0 miESE (120°)4.6 mph0.05 inRainRain
3:29 PM51.8 °F51.8 °F100 %30.34 in2.0 miESE (120°)3.5 mph0.07 inRainRain
3:54 PM52.0 °F51.1 °F97 %30.31 in2.0 miCalm0.12 inRainRain
4:20 PM53.6 °F51.8 °F94 %30.34 in2.0 miCalm0.05 inRainLight Rain
4:27 PM53.6 °F51.8 °F94 %30.34 in2.0 miCalm0.06 inRainRain
4:39 PM51.8 °F51.8 °F100 %30.32 in2.0 miESE (110°)4.6 mph0.09 inRainRain
4:54 PM52.0 °F51.1 °F97 %30.29 in2.0 miSE (130°)4.6 mph0.12 inRainLight Rain
5:54 PM51.1 °F48.9 °F92 %30.28 in2.0 miSE (130°)5.8 mph0.04 inRainRain
6:05 PM51.8 °F48.2 °F88 %30.30 in4.0 miSE (130°)6.9 mph0.01 inRainRain
6:41 PM51.8 °F50.0 °F94 %30.31 in3.0 miSouth (170°)8.1 mph0.11 inRainRain
6:54 PM51.1 °F50.0 °F96 %30.29 in3.0 miSouth (170°)5.8 mph0.15 inRainRain
7:39 PM50.0 °F48.2 °F94 %30.28 in6.0 miSSE (160°)4.6 mph0.11 inRainLight Rain
7:54 PM50.0 °F50.0 °F100 %30.27 in8.0 miSE (140°)3.5 mph0.11 inOvercast
8:01 PM50.0 °F48.2 °F94 %30.29 in9.0 miSSE (160°)3.5 mphOvercast
8:42 PM51.8 °F48.2 °F88 %30.27 in10.0 miCalm0.00 inOvercast
8:54 PM51.1 °F48.9 °F92 %30.26 in10.0 miSSE (160°)3.5 mph0.00 inOvercast
9:54 PM51.1 °F50.0 °F96 %30.25 in8.0 miSSE (150°)3.5 mph0.00 inRainLight Rain
10:21 PM51.8 °F50.0 °F94 %30.27 in9.0 miSSE (160°)3.5 mph0.00 inOvercast
10:54 PM51.1 °F50.0 °F96 %30.25 in9.0 miCalm0.00 inOvercast
11:13 PM51.8 °F50.0 °F94 %30.27 in8.0 miSSE (160°)3.5 mphOvercast
11:27 PM51.8 °F50.0 °F94 %30.26 in10.0 miSE (140°)3.5 mphOvercast
11:54 PM51.1 °F48.9 °F92 %30.24 in10.0 miSE (140°)3.5 mphOvercast
Hourly data recorded from KAVL, located 11.39 miles away from Asheville, North Carolina







STORIES FROM OUR PARTNERS